Regional Weather Roundup
Issued by NWS

Home | Current Version | Previous Version | Text Only | Print | Product List | Glossary Off
Versions: 1 2 3 4 5 6 7 8 9 10 11 12 13 14 15 16 17 18 19 20 21 22 23 24 25 26 27 28 29 30 31 32 33 34 35 36 37 38 39 40 41 42 43 44 45 46 47 48 49 50

000
ASUS45 KCYS 281210
RWRWY

WYOMING REGIONAL WEATHER ROUNDUP
NATIONAL WEATHER SERVICE CHEYENNE WY
600 AM MDT SAT MAR 28 2015

NOTE:  "FAIR" INDICATES FEW OR NO CLOUDS BELOW 12,000 FEET
WITH NO SIGNIFICANT WEATHER AND/OR OBSTRUCTIONS TO VISIBILITY.

WYZ001-281300-
YELLOWSTONE NATIONAL PARK

CITY           SKY/WX    TMP DP  RH WIND       PRES   REMARKS
LK YELLOWSTONE   N/A     24  22  91 CALM      30.14F
6HR MIN TEMP:  24; 6HR MAX TEMP:  28;

W YELLOWSTONE  NOT AVBL

$$
WYZ002>013-054>058-071-098>099-281300-
NORTHERN WYOMING

CITY           SKY/WX    TMP DP  RH WIND       PRES   REMARKS
JACKSON        FAIR      28  27  93 N7        30.13F WCI  21
CODY           FAIR      57  30  35 W14G20    29.96F
GREYBULL       FAIR      38  28  67 SE3       29.95F
6HR MIN TEMP:  37; 6HR MAX TEMP:  50;

WORLAND        FAIR      37  29  72 CALM      29.95F
6HR MIN TEMP:  35; 6HR MAX TEMP:  46;

SHERIDAN       FAIR      52  31  44 W9        29.88F
6HR MIN TEMP:  40; 6HR MAX TEMP:  57;

BUFFALO        FAIR      52  29  41 W5        29.93F
6HR MIN TEMP:  47; 6HR MAX TEMP:  60;

GILLETTE       FAIR      49  30  48 S7        29.91F
6HR MIN TEMP:  35; 6HR MAX TEMP:  52;

HULETT         FAIR      41  32  70 SW7       29.92F
NEWCASTLE      FAIR      34  28  80 NW3       29.97S

$$
WYZ014>020-022>026-101>103-281300-
CENTRAL WYOMING

CITY           SKY/WX    TMP DP  RH WIND       PRES   REMARKS
BIG PINEY      FAIR      24  21  88 NW6       30.19R WCI  17
6HR MIN TEMP:  22; 6HR MAX TEMP:  36;

PINEDALE       PTSUNNY   27  27 100 W6        30.19S WCI  20
DUBOIS         FAIR      37  28  70 NW13      30.10S WCI  29
LANDER         FAIR      45  23  42 S3        30.04S
6HR MIN TEMP:  40; 6HR MAX TEMP:  54;

RIVERTON       FAIR      43  28  55 SW10      30.04S
6HR MIN TEMP:  43; 6HR MAX TEMP:  53;

CASPER         FAIR      45  26  47 SW14      30.02F
6HR MIN TEMP:  39; 6HR MAX TEMP:  47;

DOUGLAS        FAIR      36  26  67 CALM      30.02S
6HR MIN TEMP:  35; 6HR MAX TEMP:  43;


$$
WYZ021-027>030-104>119-281300-
SOUTHERN WYOMING

CITY           SKY/WX    TMP DP  RH WIND       PRES   REMARKS
EVANSTON       FAIR      41  25  53 S7        30.20S
6HR MIN TEMP:  39; 6HR MAX TEMP:  46;

FORT BRIDGER   FAIR      44  25  47 W9        30.22S
ROCK SPRINGS   FAIR      37  25  61 SW9       30.18S WCI  30
6HR MIN TEMP:  36; 6HR MAX TEMP:  47;

DIXON          FAIR      33  25  73 CALM      30.23S
RAWLINS        FAIR      40  23  50 SW8       30.15S WCI  34
6HR MIN TEMP:  39; 6HR MAX TEMP:  47;

SARATOGA       FAIR      32  23  69 SE5       30.19R WCI  27
LARAMIE        FAIR      34  22  61 SW8       30.14S WCI  27
6HR MIN TEMP:  30; 6HR MAX TEMP:  38;

CHEYENNE       FAIR      46  22  38 NW10      30.09R
6HR MIN TEMP:  43; 6HR MAX TEMP:  47;

TORRINGTON     FAIR      33  24  69 CALM      29.99R
6HR MIN TEMP:  31; 6HR MAX TEMP:  45;

PINE BLUFFS    FAIR      34  28  80 CALM      30.05S

$$



USA.gov is the U.S. government's official web portal to all federal, state and local government web resources and services.